DateTime,F1_A11,F1_S11,BsB_S11,BsG_S11,BsR_S11,BbsB_S11,BbsG_S11,BbsR_S11,BaB_A11,BaG_A11,BaR_A11,T_S11,U_S11,P_S11,T1_A11
2016-02-09T00:00:00Z,0000380,21000600,,,,,,,,,,26.0,00.0,0628.7,34.4
2016-02-09T00:01:00Z,0000380,21000600,,,,,,,,,,26.0,00.0,0628.7,34.4
2016-02-09T00:02:00Z,0000380,21000600,,,,,,,,,,26.0,00.0,0628.7,34.4
2016-02-09T00:03:00Z,0000380,61000600,,,,,,,,,,26.0,00.0,0628.7,34.4
2016-02-09T00:04:00Z,0000380,41000600,0000.26,0000.00,0000.30,0000.45,0000.77,0000.39,0000.14,0000.14,0000.02,26.1,00.0,0629.4,34.4
2016-02-09T00:05:00Z,0000380,01000600,0000.04,-000.02,-000.46,0000.35,0000.38,0000.20,-000.18,-000.10,-000.20,26.1,00.0,0629.5,34.4
2016-02-09T00:06:00Z,0000380,01000600,-000.08,0000.00,0000.05,0000.23,0000.20,0000.57,-000.06,0000.02,-000.02,26.1,00.0,0629.5,34.4
2016-02-09T00:07:00Z,0000380,01000600,0000.37,0000.07,0000.50,0000.30,0000.02,0000.47,0000.17,0000.13,0000.26,26.1,00.0,0629.5,34.4
2016-02-09T00:08:00Z,0000380,01000600,0000.23,-000.20,0000.13,0000.08,-000.40,0000.35,0000.11,-000.04,0000.06,26.1,00.0,0629.5,34.4
2016-02-09T00:09:00Z,0000380,01000600,0000.60,0000.37,-000.19,0000.17,0000.42,0000.39,-000.01,-000.03,-000.14,26.2,00.0,0629.5,34.4
2016-02-09T00:10:00Z,0000380,01000600,0000.09,-000.05,0000.28,0000.12,0000.23,0000.54,-000.15,0000.02,0000.06,26.1,00.0,0629.4,34.4
2016-02-09T00:11:00Z,0000380,01000600,0000.41,0000.23,-000.40,0000.00,0000.50,0000.15,0000.21,-000.03,0000.15,26.1,00.0,0629.4,34.4
2016-02-09T00:12:00Z,0000380,01000600,-000.71,0000.16,0000.06,0000.22,0000.13,0000.35,-000.10,0000.11,-000.30,26.2,00.0,0629.5,34.4
2016-02-09T00:13:00Z,0000380,01000600,-000.08,-000.14,-000.02,0000.30,0000.23,-000.05,-000.10,-000.08,0000.12,26.1,00.0,0629.5,34.4
2016-02-09T00:14:00Z,0000380,01000600,-000.50,-000.66,0000.20,0000.22,0000.33,0000.25,0000.03,0000.06,-000.02,26.2,00.0,0629.5,34.4
2016-02-09T00:15:00Z,0000380,01000600,-000.60,-000.30,0000.28,0000.08,0000.23,0000.22,0000.01,0000.15,0000.04,26.2,00.0,0629.4,34.4
2016-02-09T00:16:00Z,0000380,01000600,-000.44,0000.28,-000.15,0001.01,0000.38,0000.35,0000.20,-000.02,0000.05,26.2,00.0,0629.3,34.4
2016-02-09T00:17:00Z,0000380,01000600,0000.12,0000.46,0000.00,0000.07,0000.45,0000.47,-000.05,-000.13,0000.18,26.2,00.0,0629.3,34.4
2016-02-09T00:18:00Z,0000380,01000600,-001.03,0000.20,0000.10,-000.39,0000.18,0000.34,0000.03,0000.16,-000.09,26.1,00.0,0629.3,34.4
2016-02-09T00:19:00Z,0000380,01000600,-000.38,0000.35,-000.03,-000.65,-000.03,0000.12,0000.01,-000.12,0000.03,26.1,00.0,0629.3,34.4
2016-02-09T00:20:00Z,0000380,01000600,-000.44,-000.04,0000.49,0000.22,-000.17,0000.52,0000.12,0000.02,0000.17,26.1,00.0,0629.3,34.4
2016-02-09T00:21:00Z,0000380,01000600,-000.87,0000.37,0000.05,0001.07,0000.38,0000.39,-000.10,-000.04,-000.21,26.1,00.0,0629.3,34.4
2016-02-09T00:22:00Z,0000380,01000600,-000.61,0000.66,0000.07,0000.05,-000.27,0000.18,0000.05,0000.10,-000.20,26.1,00.0,0629.3,34.4
2016-02-09T00:23:00Z,0000380,01000600,-000.36,0000.29,-000.13,0000.76,0000.43,0000.44,0000.05,0000.01,0000.30,26.1,00.0,0629.2,34.4
2016-02-09T00:24:00Z,0000380,01000600,-000.29,0000.24,-000.01,0000.30,0000.30,0000.10,0000.09,0000.09,-000.13,26.1,00.0,0629.2,34.4
2016-02-09T00:25:00Z,0000380,01000600,-000.87,0000.13,-000.39,0000.05,0000.15,0000.37,0000.06,0000.00,0000.17,26.1,00.0,0629.3,34.4
2016-02-09T00:26:00Z,0000380,01000600,-000.89,0000.42,-000.24,-000.13,-000.10,0000.44,-000.02,0000.03,-000.24,26.1,00.0,0629.2,34.4
2016-02-09T00:27:00Z,0000380,01000600,-000.15,-000.09,-000.26,-000.03,0000.20,0000.18,-000.13,-000.13,0000.05,26.1,00.0,0629.2,34.4
2016-02-09T00:28:00Z,0000380,01000600,-000.42,-000.72,0000.24,0000.45,0000.15,0000.39,0000.16,0000.09,0000.06,26.2,00.0,0629.2,34.4
2016-02-09T00:29:00Z,0000380,01000600,-000.89,0000.04,0000.35,0000.10,0000.10,0000.60,0000.04,0000.03,0000.12,26.1,00.0,0629.1,34.4
2016-02-09T00:30:00Z,0000380,01000600,-000.26,0000.28,0000.42,0000.17,0000.25,0000.72,0000.00,0000.11,0000.07,26.1,00.0,0629.1,34.4
2016-02-09T00:31:00Z,0000380,01000600,-000.75,0000.52,-000.12,0000.37,-000.02,0000.52,0000.07,-000.09,0000.04,26.1,00.0,0629.1,34.4
2016-02-09T00:32:00Z,0000380,01000600,-000.58,-000.18,-000.07,0000.32,0000.17,0000.02,0000.12,0000.11,-000.08,26.1,00.0,0629.0,34.4
2016-02-09T00:33:00Z,0000380,01000600,-000.07,0000.18,0000.00,0000.20,0000.40,0000.42,-000.11,0000.09,0000.16,26.1,00.0,0629.0,34.4
2016-02-09T00:34:00Z,0000380,01000600,-000.45,-000.04,-000.01,0000.37,0000.02,0000.07,0000.18,-000.09,-000.03,26.1,00.0,0629.1,34.4
2016-02-09T00:35:00Z,0000380,01000600,-000.20,0000.00,0000.16,0000.13,0000.35,0000.55,0000.07,0000.24,0000.08,26.1,00.0,0629.1,34.4
2016-02-09T00:36:00Z,0000380,01000600,-000.27,-000.19,-000.11,-000.27,0000.22,0000.49,-000.12,-000.19,-000.14,26.1,00.0,0629.1,34.4
2016-02-09T00:37:00Z,0000380,01000600,0000.71,0000.30,0000.08,0000.07,-000.12,0000.32,-000.04,-000.11,0000.03,26.1,00.0,0629.1,34.4
2016-02-09T00:38:00Z,0000380,01000600,-000.18,0000.20,0000.31,0000.07,-000.05,0000.30,0000.02,0000.23,0000.22,26.1,00.0,0629.1,34.4
2016-02-09T00:39:00Z,0000380,01000600,-000.39,0000.06,-000.02,0000.20,0000.35,0000.47,-000.03,-000.10,-000.29,26.1,00.0,0629.1,34.4
2016-02-09T00:40:00Z,0000380,01000600,-000.29,0000.17,0000.28,0000.17,0000.47,0000.47,0000.17,-000.03,-000.03,26.1,00.0,0629.1,34.4
2016-02-09T00:41:00Z,0000380,01000600,-000.13,0000.06,0000.06,0000.84,0000.28,0000.55,-000.13,0000.08,0000.31,26.1,00.0,0629.1,34.4
2016-02-09T00:42:00Z,0000380,01000600,-000.08,0000.45,0000.46,-000.25,0000.12,0000.77,-000.02,-000.04,-000.29,26.1,00.0,0629.1,34.4
2016-02-09T00:43:00Z,0000380,01000600,-000.11,-000.26,-000.18,0000.37,0000.35,0000.24,0000.31,0000.07,0000.13,26.1,00.0,0629.1,34.4
2016-02-09T00:44:00Z,0000380,01000600,0000.12,0000.30,-000.43,-000.22,-000.03,0000.37,-000.14,0000.11,-000.02,26.1,00.0,0629.1,34.4
2016-02-09T00:45:00Z,0000380,01000600,-000.69,-000.04,-000.06,-000.52,0000.13,0000.59,0000.13,-000.17,-000.07,26.1,00.0,0629.1,34.4
2016-02-09T00:46:00Z,0000380,01000600,0001.23,0000.44,0000.25,0000.42,-000.25,0000.35,-000.05,0000.07,0000.04,26.1,00.0,0629.1,34.4
2016-02-09T00:47:00Z,0000380,01000600,0000.37,0000.16,-000.05,-000.13,0000.05,0000.18,0000.00,-000.13,0000.23,26.1,00.0,0629.1,34.4
2016-02-09T00:48:00Z,0000380,01000600,-000.43,0000.20,0000.06,-000.23,0000.03,0000.47,-000.07,0000.25,-000.32,26.1,00.0,0629.1,34.4
2016-02-09T00:49:00Z,0000380,01000600,-001.12,0001.07,0000.29,0000.52,-000.05,0000.66,0000.10,-000.02,0000.38,26.1,00.0,0629.1,34.4
2016-02-09T00:50:00Z,0000380,01000600,-000.31,0000.15,-000.31,-000.08,0000.55,0000.37,-000.20,-000.13,-000.07,26.1,00.0,0629.1,34.4
2016-02-09T00:51:00Z,0000380,01000600,-000.52,0000.32,0000.02,0000.34,0000.63,0000.64,0000.14,0000.20,-000.10,26.1,00.0,0629.1,34.4
2016-02-09T00:52:00Z,0000380,01000600,-000.44,0000.00,0000.01,0000.20,-000.18,0000.18,0000.13,-000.23,0000.17,26.1,00.0,0629.1,34.4
2016-02-09T00:53:00Z,0000380,01000600,-000.51,0000.16,0000.22,-000.22,0000.33,0000.18,-000.11,0000.21,-000.20,26.1,00.0,0629.1,34.4
2016-02-09T00:54:00Z,0000380,01000600,-001.21,0000.01,-000.09,0000.34,0000.18,0000.45,0000.27,0000.02,0000.09,26.1,00.0,0629.1,34.4
2016-02-09T00:55:00Z,0000380,01000600,-000.26,-000.40,0000.10,0000.47,0000.48,0000.47,-000.01,-000.17,-000.05,26.1,00.0,0629.1,34.4
2016-02-09T00:56:00Z,0000380,01000600,-000.87,-000.23,0000.39,0000.07,0000.13,0000.25,-000.10,0000.31,0000.13,26.1,00.0,0629.1,34.4
2016-02-09T00:57:00Z,0000380,41000600,,,,,,,,,,,,0629.1,34.4
2016-02-09T00:58:00Z,0000380,61000600,,,,,,,,,,26.0,00.0,0628.4,34.4
2016-02-09T00:59:00Z,0000380,21000600,,,,,,,,,,26.0,00.0,0628.4,34.4
2016-02-09T01:00:00Z,0000380,21000600,,,,,,,,,,26.0,00.0,0628.4,34.4
2016-02-09T01:01:00Z,0000380,21000600,,,,,,,,,,26.0,00.0,0628.4,34.4
2016-02-09T01:02:00Z,0000380,21000600,,,,,,,,,,26.0,00.0,0628.4,34.4
2016-02-09T01:03:00Z,0000380,61000600,,,,,,,,,,26.0,00.0,0628.4,34.4
2016-02-09T01:04:00Z,0000380,41000600,-000.51,0000.26,0000.15,0000.65,-000.17,-000.05,0000.02,-000.10,0000.02,26.1,00.0,0629.0,34.4
2016-02-09T01:05:00Z,0000380,01000600,0000.93,0000.31,0000.37,0000.13,0000.02,0000.50,-000.09,-000.13,0000.03,26.1,00.0,0629.0,34.4
2016-02-09T01:06:00Z,0000380,01000600,-000.40,-001.11,0000.27,0000.57,-000.05,0000.20,0000.05,0000.14,-000.13,26.1,00.0,0629.1,34.4
2016-02-09T01:07:00Z,0000380,01000600,-000.37,-000.11,-000.13,0000.15,0000.42,0000.00,-000.06,0000.04,0000.15,26.2,00.0,0629.1,34.4
2016-02-09T01:08:00Z,0000380,01000600,-000.25,-000.78,0000.22,-000.17,0000.17,0000.17,0000.18,0000.16,-000.34,26.2,00.0,0629.1,34.4
2016-02-09T01:09:00Z,0000380,01000600,-000.54,0000.04,-000.28,0000.37,0000.02,0000.29,0000.09,0000.05,0000.23,26.2,00.0,0629.1,34.4
2016-02-09T01:10:00Z,0000380,01000600,0000.02,-000.72,0000.02,-000.12,0000.02,0000.37,0000.04,-000.19,0000.14,26.2,00.0,0629.1,34.4
2016-02-09T01:11:00Z,0000380,01000600,0000.04,-000.53,0000.52,0000.42,0000.00,0000.15,-000.08,0000.02,-000.02,26.2,00.0,0629.1,34.4
2016-02-09T01:12:00Z,0000380,01000600,-000.35,0000.06,0000.00,0000.03,0000.17,0000.02,0000.29,-000.06,-000.14,26.3,00.0,0629.1,34.4
2016-02-09T01:13:00Z,0000380,01000600,-000.48,0000.02,0000.06,0000.08,0000.18,0000.24,-000.18,0000.29,0000.02,26.3,00.0,0629.1,34.4
2016-02-09T01:14:00Z,0000380,01000600,0000.60,0000.04,0000.15,0000.10,0000.33,0000.27,-000.01,-000.06,0000.04,26.3,00.0,0629.0,34.4
2016-02-09T01:15:00Z,0000380,01000600,-000.77,-000.25,0000.20,0000.27,-000.32,0000.00,0000.11,0000.04,0000.14,26.3,00.0,0629.1,34.5
2016-02-09T01:16:00Z,0000380,01000600,-001.47,0000.15,-000.15,0000.00,0000.02,0000.27,-000.02,0000.03,0000.23,26.3,00.0,0629.1,34.5
2016-02-09T01:17:00Z,0000380,01000600,-000.40,0000.37,0000.61,-000.02,0000.17,0000.20,0000.01,-000.08,-000.19,26.3,00.0,0629.1,34.5
2016-02-09T01:18:00Z,0000380,01000600,0000.16,0000.36,0000.28,0000.00,0000.32,0000.08,-000.01,0000.04,-000.16,26.3,00.0,0629.2,34.5
2016-02-09T01:19:00Z,0000380,01000600,0000.51,-000.02,0000.09,0000.29,-000.13,-000.13,0000.11,0000.11,0000.26,26.3,00.0,0629.2,34.5
2016-02-09T01:20:00Z,0000380,01000600,-001.22,-000.32,0000.02,0000.79,-000.28,-000.02,0000.01,-000.15,0000.07,26.4,00.0,0629.1,34.5
2016-02-09T01:21:00Z,0000380,01000600,0000.17,-000.19,0000.07,0000.42,-000.12,0000.02,-000.02,0000.14,-000.00,26.4,00.0,0629.2,34.5
2016-02-09T01:22:00Z,0000380,01000600,0000.86,-000.39,0000.02,0000.89,-000.33,0000.05,-000.05,-000.12,-000.03,26.4,00.0,0629.3,34.5
2016-02-09T01:23:00Z,0000380,01000600,0001.04,0000.19,-000.30,0000.67,0000.52,0000.03,0000.09,0000.25,-000.19,26.5,00.0,0629.3,34.5
2016-02-09T01:24:00Z,0000380,01000600,-000.17,-000.56,0000.14,0000.62,0000.17,0000.47,0000.07,-000.03,0000.22,26.5,00.0,0629.3,34.5
2016-02-09T01:25:00Z,0000380,01000600,-000.50,-000.15,-000.13,-000.45,-000.43,-000.13,-000.04,-000.10,-000.17,26.5,00.0,0629.3,34.5
2016-02-09T01:26:00Z,0000380,01000600,-000.08,-000.23,0000.26,0000.22,0000.02,0000.18,-000.06,-000.02,-000.01,26.5,00.0,0629.3,34.5
2016-02-09T01:27:00Z,0000380,01000600,-001.12,-000.17,0000.06,-000.07,0000.07,-000.25,0000.17,0000.19,0000.22,26.5,00.0,0629.3,34.5
2016-02-09T01:28:00Z,0000380,01000600,-000.06,-000.42,0000.00,0000.02,-000.20,0000.08,0000.04,-000.14,-000.04,26.5,00.0,0629.3,34.5
2016-02-09T01:29:00Z,0000380,01000600,-000.85,-000.02,0000.70,0000.55,-000.32,0000.35,-000.17,-000.00,0000.05,26.5,00.0,0629.3,34.5
2016-02-09T01:30:00Z,0000380,01000600,-000.50,-000.40,-000.13,0000.55,-000.13,-000.07,0000.29,0000.24,0000.08,26.5,00.0,0629.3,34.5
2016-02-09T01:31:00Z,0000380,01000600,-000.14,-000.09,0000.07,0000.44,-000.25,0000.40,-000.03,-000.04,0000.03,26.5,00.0,0629.3,34.5
2016-02-09T01:32:00Z,0000380,01000600,-000.70,0000.51,0000.00,0000.55,0000.28,0000.35,-000.07,0000.03,-000.20,26.5,00.0,0629.4,34.5
2016-02-09T01:33:00Z,0000380,01000600,-000.10,0000.12,-000.10,0000.18,-000.05,-000.10,0000.08,-000.10,-000.09,26.5,00.0,0629.4,34.5
2016-02-09T01:34:00Z,0000380,01000600,-000.37,0000.07,0000.24,-000.34,-000.08,0000.07,-000.04,0000.15,0000.14,26.5,00.0,0629.4,34.5
2016-02-09T01:35:00Z,0000380,01000600,-000.31,-000.17,0000.24,-000.44,-000.20,0000.15,0000.01,-000.08,-000.09,26.5,00.0,0629.4,34.5
2016-02-09T01:36:00Z,0000380,01000600,-000.04,0000.37,0000.13,0000.15,-000.27,0000.29,-000.01,0000.15,0000.14,26.5,00.0,0629.4,34.5
2016-02-09T01:37:00Z,0000380,01000600,-000.68,-000.34,0000.07,0000.03,-000.64,0000.40,0000.05,-000.09,0000.03,26.5,00.0,0629.4,34.5
2016-02-09T01:38:00Z,0000380,01000600,-000.43,0000.28,-000.28,0000.34,-000.35,-000.13,0000.02,0000.08,-000.01,26.5,00.0,0629.4,34.5
2016-02-09T01:39:00Z,0000380,01000600,-000.41,0000.00,0000.30,0000.22,-000.02,0000.52,0000.01,-000.10,0000.10,26.5,00.0,0629.4,34.5
2016-02-09T01:40:00Z,0000380,01000600,-000.95,-000.21,-000.13,0000.18,-000.23,0000.08,0000.06,0000.06,-000.07,26.5,00.0,0629.3,34.5
2016-02-09T01:41:00Z,0000380,01000600,0000.15,-000.83,0000.20,0000.15,0000.10,-000.20,-000.05,0000.10,0000.04,26.5,00.0,0629.4,34.5
2016-02-09T01:42:00Z,0000380,01000600,-000.58,0000.34,-000.35,0000.03,0000.02,-000.10,0000.12,-000.21,-000.10,26.5,00.0,0629.3,34.5
2016-02-09T01:43:00Z,0000380,01000600,0000.58,-000.27,-000.28,-000.37,-000.25,-000.10,-000.00,0000.17,0000.04,26.5,00.0,0629.4,34.5
2016-02-09T01:44:00Z,0000380,01000600,-000.08,-000.81,-000.04,0000.67,-000.17,-000.44,0000.02,-000.09,-000.06,26.5,00.0,0629.4,34.5
2016-02-09T01:45:00Z,0000380,01000600,-001.55,-000.08,0000.35,-000.08,0000.05,0000.05,-000.19,0000.14,0000.11,26.5,00.0,0629.4,34.5
2016-02-09T01:46:00Z,0000380,01000600,-000.93,-000.40,-000.19,0000.20,-000.12,0000.32,0000.07,0000.05,-000.08,26.5,00.0,0629.4,34.5
2016-02-09T01:47:00Z,0000380,01000600,0000.62,-000.42,0000.30,0000.29,0000.02,-000.03,0000.09,0000.03,0000.00,26.5,00.0,0629.4,34.5
2016-02-09T01:48:00Z,0000380,01000600,0000.37,-000.70,0000.11,0000.30,0000.13,0000.17,-000.08,-000.14,0000.00,26.5,00.0,0629.4,34.5
2016-02-09T01:49:00Z,0000380,01000600,-000.08,0000.36,0000.02,0000.34,0000.07,-000.05,0000.25,0000.15,0000.04,26.5,00.0,0629.4,34.5
2016-02-09T01:50:00Z,0000380,01000600,-000.41,-000.44,-000.02,-000.24,-000.32,-000.10,-000.15,0000.05,-000.11,26.5,00.0,0629.4,34.5
2016-02-09T01:51:00Z,0000380,01000600,-000.62,0000.11,-000.24,0000.03,-000.05,-000.13,0000.12,-000.17,0000.10,26.5,00.0,0629.4,34.5
2016-02-09T01:52:00Z,0000380,01000600,-000.71,-000.06,0000.13,-000.25,0000.07,0000.12,0000.04,0000.07,0000.23,26.5,00.0,0629.5,34.5
2016-02-09T01:53:00Z,0000380,01000600,-001.35,-000.11,0000.07,0000.22,-000.27,0000.29,0000.12,0000.07,-000.39,26.5,00.0,0629.5,34.5
2016-02-09T01:54:00Z,0000380,01000600,0000.77,-000.13,-000.67,0000.69,-000.20,-000.25,-000.20,0000.03,0000.27,26.6,00.0,0629.5,34.5
2016-02-09T01:55:00Z,0000380,01000600,-000.64,0000.04,0000.28,0000.91,0000.00,0000.12,-000.00,0000.10,0000.16,26.5,00.0,0629.5,34.5
2016-02-09T01:56:00Z,0000380,01000600,-000.08,-000.25,-000.13,0000.40,-000.30,0000.27,0000.05,-000.04,-000.16,26.6,00.0,0629.4,34.5
2016-02-09T01:57:00Z,0000380,41000600,,,,,,,,,,,,0629.5,34.5
2016-02-09T01:58:00Z,0000380,61000600,,,,,,,,,,26.4,00.0,0628.6,34.5
2016-02-09T01:59:00Z,0000380,21000600,,,,,,,,,,26.5,00.0,0628.6,34.5
2016-02-09T02:00:00Z,0000380,21000600,,,,,,,,,,26.5,00.0,0628.6,34.5
2016-02-09T02:01:00Z,0000380,21000600,,,,,,,,,,26.5,00.0,0628.6,34.5
2016-02-09T02:02:00Z,0000380,21000600,,,,,,,,,,26.5,00.0,0628.6,34.5
2016-02-09T02:03:00Z,0000380,61000600,,,,,,,,,,26.5,00.0,0628.6,34.5
2016-02-09T02:04:00Z,0000380,41000600,-000.29,0000.00,0000.02,-000.47,-000.23,-000.05,0000.05,0000.04,-000.24,26.6,00.0,0629.4,34.5
2016-02-09T02:05:00Z,0000380,01000600,-000.41,-000.40,0000.04,-000.27,-000.17,-000.03,0000.00,0000.05,0000.30,26.6,00.0,0629.4,34.5
2016-02-09T02:06:00Z,0000380,01000600,-000.17,-000.11,0000.22,-000.47,-000.38,0000.25,0000.10,0000.06,-000.02,26.7,00.0,0629.5,34.5
2016-02-09T02:07:00Z,0000380,01000600,-000.21,-000.23,-000.15,0000.18,0000.03,0000.25,-000.09,-000.09,-000.06,26.7,00.0,0629.5,34.5
2016-02-09T02:08:00Z,0000380,01000600,-001.16,-000.23,-000.52,-000.12,-000.17,0000.02,0000.12,0000.20,0000.20,26.7,00.0,0629.5,34.5
2016-02-09T02:09:00Z,0000380,01000600,0000.14,-000.64,-000.17,0000.55,-000.44,0000.30,0000.02,-000.12,-000.00,26.7,00.0,0629.5,34.5
2016-02-09T02:10:00Z,0000380,01000600,-000.56,0000.19,-000.13,0000.13,-000.15,0000.30,-000.05,0000.12,-000.28,26.7,00.0,0629.6,34.5
2016-02-09T02:11:00Z,0000380,01000600,0000.33,-000.15,0000.22,0000.22,-000.18,0000.34,-000.05,-000.04,0000.09,26.7,00.0,0629.6,34.5
2016-02-09T02:12:00Z,0000380,01000600,0000.39,-000.63,-000.24,0000.34,0000.05,0000.24,-000.10,-000.05,0000.21,26.7,00.0,0629.6,34.5
2016-02-09T02:13:00Z,0000380,01000600,-000.33,-000.21,-000.22,-000.17,-000.20,0000.08,0000.26,0000.04,-000.10,26.7,00.0,0629.7,34.5
2016-02-09T02:14:00Z,0000380,01000600,-001.18,-000.15,-000.30,0000.37,0000.17,0000.27,-000.09,0000.13,-000.07,26.7,00.0,0629.7,34.5
2016-02-09T02:15:00Z,0000380,01000600,-000.85,0000.30,-000.44,0000.08,0000.00,-000.20,0000.06,0000.01,0000.03,26.7,00.0,0629.7,34.5
2016-02-09T02:16:00Z,0000380,01000600,-000.08,-000.40,-000.07,-000.10,-000.20,0000.24,-000.07,-000.13,0000.14,26.7,00.0,0629.7,34.5
2016-02-09T02:17:00Z,0000380,01000600,0000.44,0000.13,0000.04,0000.59,0000.42,0000.39,-000.02,0000.06,-000.08,26.7,00.0,0629.7,34.5
2016-02-09T02:18:00Z,0000380,01000600,-000.87,0000.36,-000.11,0000.08,-000.64,0000.22,0000.24,0000.08,0000.07,26.7,00.0,0629.7,34.5
2016-02-09T02:19:00Z,0000380,01000600,-000.33,-000.23,0000.17,0000.55,0000.03,0000.32,-000.09,0000.01,-000.05,26.7,00.0,0629.7,34.5
2016-02-09T02:20:00Z,0000380,01000600,-001.76,0000.02,-000.11,0000.44,-000.33,-000.05,0000.13,0000.07,0000.03,26.7,00.0,0629.7,34.5
2016-02-09T02:21:00Z,0000380,01000600,0000.58,-000.30,-000.37,0000.12,0000.12,-000.08,-000.21,0000.02,0000.10,26.7,00.0,0629.7,34.5
2016-02-09T02:22:00Z,0000380,01000600,-000.21,-000.49,0000.15,0000.66,-000.03,0000.03,0000.04,-000.06,-000.01,26.7,00.0,0629.7,34.5
2016-02-09T02:23:00Z,0000380,01000600,-000.62,-001.14,0000.02,-000.03,-000.08,0000.05,0000.08,0000.11,-000.15,26.7,00.0,0629.7,34.5
2016-02-09T02:24:00Z,0000380,01000600,-001.12,-000.51,0000.26,0000.18,-000.05,-000.03,0000.08,-000.07,0000.04,26.7,00.0,0629.7,34.5
2016-02-09T02:25:00Z,0000380,01000600,0000.21,-000.51,-000.09,0000.12,-000.10,0000.02,-000.01,0000.07,-000.06,26.7,00.0,0629.7,34.5
2016-02-09T02:26:00Z,0000380,01000600,-000.37,0000.34,-000.50,-000.45,-000.17,-000.10,0000.08,0000.02,0000.08,26.6,00.0,0629.7,34.5
2016-02-09T02:27:00Z,0000380,01000600,0000.08,-000.15,0000.00,0000.10,-000.23,0000.00,-000.03,-000.03,-000.01,26.7,00.0,0629.7,34.5
2016-02-09T02:28:00Z,0000380,01000600,-000.35,-000.19,-000.04,-000.03,0000.42,0000.02,-000.07,-000.07,0000.06,26.6,00.0,0629.7,34.5
2016-02-09T02:29:00Z,0000380,01000600,0000.33,-000.51,-000.37,-000.30,0000.12,0000.32,-000.05,0000.18,-000.03,26.6,00.0,0629.7,34.5
2016-02-09T02:30:00Z,0000380,01000600,-000.77,0000.00,-000.11,0000.71,-000.08,-000.27,0000.04,-000.05,-000.16,26.6,00.0,0629.6,34.5
2016-02-09T02:31:00Z,0000380,01000600,-000.35,-000.06,-000.52,0000.96,0000.23,-000.05,0000.36,0000.01,0000.31,26.6,00.0,0629.6,34.5
2016-02-09T02:32:00Z,0000380,01000600,-000.54,-000.45,-000.09,-000.32,0000.25,0000.12,-000.22,0000.00,-000.03,26.7,00.0,0629.6,34.5
2016-02-09T02:33:00Z,0000380,01000600,0000.10,0000.04,0000.02,0000.40,-000.02,-000.03,0000.16,0000.14,0000.16,26.6,00.0,0629.7,34.5
2016-02-09T02:34:00Z,0000380,01000600,0000.91,0000.06,-000.33,0000.79,-000.35,-000.29,-000.08,-000.07,-000.22,26.6,00.0,0629.6,34.5
2016-02-09T02:35:00Z,0000380,01000600,-001.39,0000.04,-000.20,0000.42,0000.22,-000.17,-000.01,0000.03,0000.25,26.6,00.0,0629.7,34.5
2016-02-09T02:36:00Z,0000380,01000600,-000.21,-000.17,-000.39,0000.65,-000.30,0000.10,0000.03,-000.08,-000.24,26.6,00.0,0629.7,34.5
2016-02-09T02:37:00Z,0000380,01000600,0000.48,0000.00,0000.52,0000.62,0000.00,-000.08,-000.14,0000.11,0000.31,26.6,00.0,0629.7,34.5
2016-02-09T02:38:00Z,0000380,01000600,0000.08,-000.30,0000.02,0000.03,-000.23,0000.25,0000.19,0000.03,-000.32,26.6,00.0,0629.7,34.5
2016-02-09T02:39:00Z,0000380,01000600,-000.62,0000.45,-000.63,0000.10,-000.42,0000.39,0000.01,0000.05,-000.20,26.6,00.0,0629.7,34.5
2016-02-09T02:40:00Z,0000380,01000600,-000.12,-000.15,0000.19,-000.18,0000.20,0000.29,-000.04,-000.14,0000.32,26.7,00.0,0629.7,34.5
2016-02-09T02:41:00Z,0000380,01000600,-000.70,-000.49,-000.44,-000.29,0000.25,0000.52,-000.02,0000.10,0000.20,26.6,00.0,0629.7,34.5
2016-02-09T02:42:00Z,0000380,01000600,0000.17,0000.47,0000.04,0000.12,0000.27,0000.10,0000.05,0000.04,-000.11,26.6,00.0,0629.7,34.5
2016-02-09T02:43:00Z,0000380,01000600,0000.33,-000.42,-000.35,0000.40,0000.13,0000.37,-000.07,-000.01,-000.26,26.6,00.0,0629.7,34.5
2016-02-09T02:44:00Z,0000380,01000600,-000.29,-000.19,-000.07,-000.34,-000.30,0000.24,0000.11,0000.01,0000.18,26.6,00.0,0629.7,34.5
2016-02-09T02:45:00Z,0000380,01000600,-000.23,-000.17,0000.43,0000.12,0000.18,0000.18,-000.04,-000.06,0000.20,26.6,00.0,0629.7,34.5
2016-02-09T02:46:00Z,0000380,01000600,-000.19,0000.17,-000.33,0001.02,-000.22,0000.35,0000.08,0000.18,-000.00,26.6,00.0,0629.7,34.5
2016-02-09T02:47:00Z,0000380,01000600,0000.21,-000.15,0000.07,0000.64,0000.02,0000.42,-000.13,-000.16,-000.10,26.6,00.0,0629.7,34.5
2016-02-09T02:48:00Z,0000380,01000600,-001.41,0000.78,-000.07,0000.30,-000.22,0000.08,0000.06,0000.11,0000.03,26.6,00.0,0629.7,34.5
2016-02-09T02:49:00Z,0000380,01000600,0000.22,-000.06,0000.15,-000.34,-000.17,0000.34,0000.07,0000.09,0000.19,26.6,00.0,0629.6,34.5
2016-02-09T02:50:00Z,0000380,01000600,-000.10,-001.08,0000.13,0000.07,-000.03,0000.15,0000.03,-000.21,-000.29,26.6,00.0,0629.6,34.5
2016-02-09T02:51:00Z,0000380,01000600,-000.41,0000.21,-000.44,0000.07,-000.40,0000.18,0000.07,0000.09,0000.10,26.6,00.0,0629.6,34.5
2016-02-09T02:52:00Z,0000380,01000600,0000.41,0000.21,0000.13,0000.18,-000.33,-000.03,0000.00,0000.03,-000.09,26.6,00.0,0629.6,34.5
2016-02-09T02:53:00Z,0000380,01000600,0000.21,-000.32,-000.06,0000.34,-000.43,-000.24,-000.01,-000.03,0000.27,26.6,00.0,0629.6,34.5
2016-02-09T02:54:00Z,0000380,01000600,0000.31,-000.04,-000.02,-000.44,-000.23,0000.34,0000.11,0000.09,-000.28,26.6,00.0,0629.6,34.5
2016-02-09T02:55:00Z,0000380,01000600,-000.15,-000.25,-000.15,-000.57,0000.45,0000.18,0000.04,0000.01,0000.36,26.6,00.0,0629.6,34.5
2016-02-09T02:56:00Z,0000380,01000600,-000.41,0000.21,-000.09,-000.45,0000.02,0000.17,-000.11,-000.03,-000.32,26.6,00.0,0629.6,34.5
2016-02-09T02:57:00Z,0000380,41000600,,,,,,,,,,,,0629.6,34.5
2016-02-09T02:58:00Z,0000380,61000600,,,,,,,,,,26.5,00.0,0628.8,34.5
2016-02-09T02:59:00Z,0000380,21000600,,,,,,,,,,26.5,00.0,0628.8,34.5
2016-02-09T03:00:00Z,0000380,21000600,,,,,,,,,,26.5,00.0,0628.8,34.5
2016-02-09T03:01:00Z,0000380,21000600,,,,,,,,,,26.5,00.0,0628.8,34.5
2016-02-09T03:02:00Z,0000380,21000600,,,,,,,,,,26.5,00.0,0628.8,34.5
2016-02-09T03:03:00Z,0000380,61000600,,,,,,,,,,26.5,00.0,0628.8,34.5
2016-02-09T03:04:00Z,0000380,41000600,-001.26,-000.38,-000.11,0000.08,0000.12,-000.12,0000.11,0000.03,-000.35,26.6,00.0,0629.5,34.5
2016-02-09T03:05:00Z,0000380,01000600,0000.41,-000.19,-000.02,0000.59,-000.13,0000.37,-000.03,0000.05,0000.37,26.6,00.0,0629.5,34.5
2016-02-09T03:06:00Z,0000380,01000600,-000.73,-000.25,-000.41,0000.81,-000.27,-000.15,0000.09,-000.03,-000.12,26.6,00.0,0629.5,34.5
2016-02-09T03:07:00Z,0000380,01000600,0000.93,-000.02,-000.13,-000.15,-000.27,0000.15,-000.11,0000.11,-000.18,26.5,00.0,0629.5,34.5
2016-02-09T03:08:00Z,0000380,01000600,-000.08,0000.23,-000.06,0000.24,-000.17,0000.03,-000.03,0000.01,0000.20,26.6,00.0,0629.5,34.5
2016-02-09T03:09:00Z,0000380,01000600,0000.44,-000.21,0000.02,0000.25,-000.05,0000.02,0000.06,0000.06,0000.08,26.5,00.0,0629.5,34.5
2016-02-09T03:10:00Z,0000380,01000600,0000.39,-000.04,-000.02,0000.17,-000.03,0000.05,-000.00,0000.05,-000.06,26.5,00.0,0629.5,34.5
2016-02-09T03:11:00Z,0000380,01000600,0000.04,-000.21,-000.33,0000.44,0000.18,-000.02,0000.16,0000.06,0000.06,26.5,00.0,0629.5,34.5
2016-02-09T03:12:00Z,0000380,01000600,-000.39,-000.78,-000.50,0000.10,0000.25,-000.07,-000.13,-000.26,-000.12,26.5,00.0,0629.5,34.5